Flushing, NY

2:31 PM EST on December 06, 2016 (GMT -0500)
La Guardia

Weather History for KLGA - April, 2014

Change the Weather History Date:

Saturday, April 5, 2014

  Actual Average Record
Temperature  
Mean Temperature 47 °F 49 °F  
Max Temperature 54 °F 57 °F 74 °F (1989)
Min Temperature 39 °F 41 °F 25 °F (1995)
Degree Days  
Heating Degree Days 18 16  
Month to date heating degree days 86 85  
Since 1 July heating degree days 4601 4221  
Cooling Degree Days 0 0  
Month to date cooling degree days 0 0  
Year to date cooling degree days 0 0  
Moisture  
Dew Point 31 °F    
Average Humidity 59    
Maximum Humidity 86    
Minimum Humidity 32    
Precipitation  
Precipitation 0.00 in 0.14 in 2.12 in (1984)
Month to date precipitation 0.26 0.70  
Year to date precipitation 11.21 10.60  
Snow  
Snow 0.00 in 0.00 in T in (2007)
Month to date snowfall 0.0 0.2  
Since 1 July snowfall 52.1 26.6  
Snow Depth 0.00 in    
Sea Level Pressure  
Sea Level Pressure 29.84 in    
Wind  
Wind Speed 16 mph (NW)    
Max Wind Speed 33 mph    
Max Gust Speed 46 mph    
Visibility 10 miles    
Events Rain    
T = Trace of Precipitation, MM = Missing Value Source: NWS Daily Summary

Daily Weather History Graph

Daily Weather History Graph

Search for Another Location

Airport or City:

Trip Planner

Search our weather history database for the weather conditions in past years. The results will help you decide how hot, cold, wet, or windy it might be!

Date:

Astronomy

Apr. 05, 2014 Rise Set
Actual Time 6:32 AM EDT 7:24 PM EDT
Civil Twilight 6:04 AM EDT 7:52 PM EDT
Nautical Twilight 5:31 AM EDT 8:25 PM EDT
Astronomical Twilight 4:57 AM EDT 8:59 PM EDT
Moon 10:36 AM EDT (4/5) 12:33 AM EDT (4/5)
Length of Visible Light 13h 47m
Length of Day
12h 51m
Waxing Crescent, 34% of the Moon is Illuminated
Apr 5
Waxing Crescent
Apr 7
First Quarter
Apr 15
Full
Apr 22
Last Quarter
Apr 29
New

Hourly Weather History & Observations

Time (EDT) Temp. Windchill Dew Point Humidity Pressure Visibility Wind Dir Wind Speed Gust Speed Precip Events Conditions
12:01 AM 39.2 °F 33.0 °F 35.6 °F 87% 29.78 in 2.0 mi NE 9.2 mph 21.9 mph 0.02 in Rain Heavy Rain
12:23 AM 39.2 °F 29.6 °F 35.6 °F 87% 29.75 in 6.0 mi ENE 19.6 mph - 0.10 in Rain Light Rain
12:51 AM 39.0 °F 30.6 °F 36.0 °F 89% 29.75 in 10.0 mi NE 15.0 mph - 0.10 in Rain Light Rain
1:51 AM 39.9 °F 32.1 °F 36.0 °F 86% 29.74 in 10.0 mi NNE 13.8 mph - 0.00 in   Overcast
2:04 AM 39.2 °F 32.0 °F 37.4 °F 93% 29.74 in 10.0 mi NNE 11.5 mph - N/A   Overcast
2:51 AM 41.0 °F 36.4 °F 37.9 °F 89% 29.73 in 10.0 mi North 6.9 mph - N/A   Overcast
3:51 AM 41.0 °F 38.0 °F 37.9 °F 89% 29.73 in 10.0 mi NNE 4.6 mph - N/A   Overcast
4:51 AM 41.0 °F 35.8 °F 37.0 °F 86% 29.74 in 10.0 mi NW 8.1 mph - N/A   Overcast
5:30 AM 39.2 °F 34.2 °F 37.4 °F 93% 29.76 in 9.0 mi NW 6.9 mph - N/A   Overcast
5:47 AM 41.0 °F 39.0 °F 37.4 °F 87% 29.77 in 9.0 mi WNW 3.5 mph - N/A   Overcast
5:51 AM 41.0 °F 38.0 °F 37.0 °F 86% 29.77 in 9.0 mi NW 4.6 mph - N/A   Overcast
6:22 AM 41.0 °F 39.0 °F 37.4 °F 87% 29.78 in 10.0 mi WNW 3.5 mph - N/A   Overcast
6:51 AM 42.1 °F 38.4 °F 37.0 °F 82% 29.79 in 10.0 mi NNW 5.8 mph - N/A   Overcast
7:27 AM 42.8 °F 40.1 °F 37.4 °F 81% 29.79 in 10.0 mi West 4.6 mph - N/A   Scattered Clouds
7:51 AM 44.1 °F 42.5 °F 39.0 °F 82% 29.79 in 10.0 mi WNW 3.5 mph - N/A   Scattered Clouds
8:51 AM 46.9 °F - 37.9 °F 71% 29.81 in 10.0 mi West 12.7 mph 19.6 mph N/A   Scattered Clouds
9:51 AM 51.1 °F - 34.0 °F 52% 29.81 in 10.0 mi West 20.7 mph 32.2 mph N/A   Scattered Clouds
10:51 AM 50.0 °F - 32.0 °F 50% 29.82 in 10.0 mi WNW 24.2 mph 33.4 mph N/A   Mostly Cloudy
11:51 AM 51.1 °F - 27.0 °F 39% 29.84 in 10.0 mi WNW 28.8 mph 38.0 mph N/A   Partly Cloudy
12:51 PM 52.0 °F - 27.0 °F 38% 29.83 in 10.0 mi West 16.1 mph 29.9 mph N/A   Mostly Cloudy
1:51 PM 51.1 °F - 25.0 °F 36% 29.85 in 10.0 mi West 26.5 mph 32.2 mph N/A   Mostly Cloudy
2:51 PM 53.1 °F - 25.0 °F 34% 29.84 in 10.0 mi West 18.4 mph 28.8 mph N/A   Mostly Cloudy
3:51 PM 52.0 °F - 27.0 °F 38% 29.85 in 10.0 mi NW 20.7 mph 28.8 mph N/A   Mostly Cloudy
4:51 PM 53.1 °F - 24.1 °F 32% 29.88 in 10.0 mi West 17.3 mph 26.5 mph N/A   Mostly Cloudy
5:51 PM 52.0 °F - 25.0 °F 35% 29.90 in 10.0 mi WNW 19.6 mph 32.2 mph N/A   Mostly Cloudy
6:51 PM 50.0 °F - 26.1 °F 39% 29.93 in 10.0 mi NW 18.4 mph 29.9 mph N/A   Scattered Clouds
7:51 PM 46.9 °F - 25.0 °F 42% 29.96 in 10.0 mi NW 16.1 mph 27.6 mph N/A   Scattered Clouds
8:51 PM 44.1 °F 35.4 °F 21.9 °F 42% 30.01 in 10.0 mi NW 21.9 mph 32.2 mph N/A   Partly Cloudy
9:51 PM 44.1 °F 35.4 °F 21.9 °F 42% 30.03 in 10.0 mi NW 21.9 mph - N/A   Clear
10:51 PM 42.1 °F 33.3 °F 21.9 °F 45% 30.06 in 10.0 mi NW 19.6 mph 23.0 mph N/A   Clear
11:51 PM 41.0 °F 33.9 °F 21.9 °F 47% 30.07 in 10.0 mi NW 12.7 mph 24.2 mph N/A   Clear